www.pogodaiklimat.ru

Погода и климат >> Архив погоды >> Россия >> Якутия >> Хатырык-Хомо


ПОГОДА в Хатырык-Хомо

  • Прогноз погоды в Хатырык-Хомо
  • Монитор погоды в Хатырык-Хомо

АРХИВ ПОГОДЫ в Хатырык-Хомо

Время (UTC), дата Ветер
(напр.,м/с)
 
Видим.   Явления Облачность Т
(С)
Тd
(С)
f
(%)
Тe
(С)
Тes
(С)
Комфортность P
(гПа)
Po
(гПа)
Тmin
(С)
Tmax
(С)
R
(мм)
R24
(мм)
S
(см)
06 13.09 З 5 50 км {ливн. осадки} 10/10 600 м
[Cb cap]
+6.1 +5.9 99 +2 +2 992.0 982.7
09 13.09 З 5 50 км 10/10 600 м
[Cb cap]
+5.3 +3.4 88 +1 +1 995.6 986.2
12 13.09 З 2 50 км 10/10 600 м
[Cb cap]
+5.9 +1.4 73 +4 +4 997.6 988.2 +10.0 6
15 13.09 СЗ 4 50 км 1/1 1000 м
[Sc]
+3.7 -4.0 57 -0 -0 999.6 990.2
18 13.09 ЮЗ 1 50 км ясно +0.8 -5.6 62 -1 -1 1000.8 991.3
21 13.09 штиль 0 50 км ясно +0.6 -3.3 75 -0 -0 1002.2 992.7
00 14.09 В 1 50 км ясно +2.4 -3.9 63 +1 +3 1003.2 993.8 +0.6
03 14.09 ЮЗ 2 50 км ясно +6.9 -4.2 45 +5 +10 1002.7 993.3
06 14.09 Ю 4 50 км 8/0
[Ac trans]
+9.0 -3.2 42 +7 +8 1001.2 992.0
09 14.09 ЮВ 1 50 км 9/9 600 м
[Cb cap]
+8.7 -2.5 45 +9 +9 1001.1 991.9
12 14.09 штиль 0 50 км 3/3 1000 м
[Sc]
-0.5 -1.7 92 -2 -2 1002.9 993.4 +9.8
15 14.09 штиль 0 50 км ясно -0.7 -1.9 92 -2 -2 1003.3 993.8
18 14.09 штиль 0 50 км ясно -1.0 -1.9 94 -2 -2 1003.5 994.0
21 14.09 штиль 0 50 км 8/4 1000 м
[Sc Ci fib]
-1.6 -2.7 92 -3 -3 1003.4 993.9
00 15.09 СВ 2 50 км 9/8 1000 м
[Sc Ac trans]
+2.2 -0.8 81 -1 -1 1002.8 993.4 -1.6
03 15.09 В 5 50 км 10/10 600 м
[Cb cap]
+6.7 -3.0 50 +3 +3 1000.6 991.2
06 15.09 ЮВ 5 50 км 10/10 600 м
[Cb cap]
+9.6 -1.1 47 +7 +7 999.2 990.0
09 15.09 Ю 2 20 км слаб. ливневой дождь 10/10 600 м
[Cb cap]
+1.7 +1.4 98 -2 -2 1003.1 993.6
12 15.09 штиль 0 50 км {ливн. осадки} 10/10 600 м
[Cb cap]
+1.3 +0.5 94 0 0 1005.3 995.7 +10.4 3
15 15.09 штиль 0 50 км 10/10 600 м
[Cb cap]
+1.8 +1.0 94 +1 +1 1006.1 996.7
18 15.09 штиль 0 50 км 10/10 600 м
[Cb cap]
+1.6 +0.8 94 0 0 1006.7 997.1
21 15.09 штиль 0 50 км 10/10 600 м
[Cb cap]
+0.9 +0.1 94 -0 -0 1007.1 997.5
00 16.09 ЮВ 1 50 км {ливн. осадки} 10/10 600 м
[Cb cap]
+1.5 +1.0 96 -1 -1 1007.8 998.2 +0.9 0.6
03 16.09 В 1 50 км 6/6 600 м
[Cb cap]
+3.9 +1.6 85 +2 +5 1007.9 998.5
06 16.09 В 2 50 км 6/5 600 м
[Cb cap Ci fib]
+5.3 +0.4 71 +3 +5 1008.7 999.3
09 16.09 В 1 50 км 8/1 1000 м
[Sc Ci fib]
+6.4 -0.1 63 +6 +6 1009.8 1000.4
12 16.09 С 1 50 км 10/4 600 м
[Cb cap Ac trans Ci fib]
-0.4 -1.9 90 -3 -3 1010.8 1001.2 +6.5
15 16.09 штиль 0 50 км 4/1 1000 м
[Sc Ci fib]
-1.4 -2.2 94 -3 -3 1010.8 1001.2
18 16.09 З 3 50 км 10/8 600 м
[Cb cap As trans]
+1.8 +1.3 96 -3 -3 1009.9 1000.5
21 16.09 З 3 50 км 10/0
[Ac As Cs]
+0.8 0.0 94 -4 -4 1010.1 1000.5
00 17.09 З 3 50 км 10/0
[Ac As Cs]
+1.9 0.0 87 -2 -2 1010.2 1000.8 -1.4
03 17.09 З 5 50 км 8/0
[Ac trans Cs]
+5.0 -0.9 66 +1 +2 1009.8 1000.4
06 17.09 З 3 50 км 10/0
[As trans Cs]
+6.8 +0.5 64 +4 +6 1010.2 1000.8
09 17.09 З 4 50 км 10/0
[Ac As Cs]
+6.6 +0.2 64 +3 +3 1011.2 1001.8
12 17.09 З 3 50 км 10/0
[Ac As Ci fib]
+3.7 +1.1 83 -0 -0 1012.1 1002.7 +6.9
15 17.09 З 3 50 км 10/6 1000 м
[Sc Ac As Cs]
+3.3 +1.0 85 -1 -1 1011.5 1002.1
18 17.09 ЮЗ 3 50 км 10/8 1000 м
[Sc Ac trans]
+3.0 +0.6 84 -1 -1 1011.1 1001.7
21 17.09 З 3 50 км 10/0
[Ac As Cs]
+2.5 +0.4 86 -2 -2 1011.2 1001.8
00 18.09 З 2 50 км 10/0
[Ac As]
+2.4 +0.3 86 -1 -0 1011.6 1002.2 +2.4
03 18.09 СЗ 3 50 км 10/0
[Ac As]
+4.6 +0.7 76 +1 +2 1012.0 1002.6
06 18.09 СЗ 3 50 км 10/0
[Ac As]
+5.6 +0.5 70 +3 +3 1012.6 1003.2
09 18.09 З 1 50 км 10/0
[Ac As]
+4.4 -0.1 73 +3 +3 1013.6 1004.2
12 18.09 штиль 0 50 км 10/0
[Ac As]
+4.0 0.0 75 +3 +3 1014.2 1004.8 +5.6
15 18.09 штиль 0 20 км слаб. ливневой дождь 10/10 600 м
[Cb cap]
+3.6 +3.1 97 +2 +2 1013.7 1004.3
18 18.09 штиль 0 50 км {ливн. осадки} 10/3 1000 м
[Sc Ac As Cs]
+2.3 +1.8 96 +1 +1 1013.4 1004.0
21 18.09 штиль 0 50 км 6/4 1000 м
[Sc Ci fib]
+1.1 +0.3 94 -0 -0 1012.9 1003.3
00 19.09 В 3 50 км 10/8 600 м
[Cb cap Cs]
+2.2 +1.1 92 -2 -2 1012.6 1003.2 +1.1 1
03 19.09 ЮВ 4 50 км 9/9 600 м
[Cb cap]
+4.1 +2.1 87 -0 0 1012.2 1002.8
06 19.09 В 4 50 км 10/10 600 м
[Cb cap]
+5.0 +1.5 78 +1 +1 1012.3 1002.9
09 19.09 В 3 50 км 10/5 600 м
[Cb cap Ci fib]
+5.5 +1.8 77 +2 +2 1013.2 1003.8
12 19.09 СВ 1 50 км 4/3 600 м
[Cb cap Ac trans]
+2.5 +1.5 93 +1 +1 1014.2 1004.8 +5.5
15 19.09 С 1 50 км 6/3 1000 м
[Sc Ci fib]
-1.0 -1.6 96 -3 -3 1015.0 1005.3
18 19.09 СЗ 1 50 км 10/10 600 м
[Cb cap]
-0.7 -1.3 96 -3 -3 1015.1 1005.4
21 19.09 З 1 50 км 10/0
[Ac As Cs]
-0.4 -1.6 92 -3 -3 1015.5 1005.8
00 20.09 З 2 50 км 9/0
[Ac As]
+0.9 -0.8 88 -3 -2 1015.3 1005.6 -1.0

 

Местоположение метеостанции Хатырык-Хомо (Якутия, Россия): широта 63.95 долгота 124.80 высота над уровнем моря 77 м.

В архиве по умолчанию представлена погода в Хатырык-Хомо за последнюю неделю. Архивные данные за месяц целиком и за предыдущие месяцы, начиная с января 2011 года, Вы можете получить, выбрав интересующий диапазон дат из раскрывающегося списка и нажав кнопку "Ввод!".


*Определитесь, кто Вы:
робот инопланетянин человек

Внимание! Время в таблицах - всемирное. Для получения местного времени необходимо прибавить поправку, которая равна 9 ч.

Смотрите также архив погоды в соседних городах и на ближайших метеорологических станциях:

Погода в Сого-Хае (Якутия, Россия) (86 км)
Погода в Сангаре (Якутия, Россия) (127 км)
Погода в Бестяхской Звероферме (Якутия, Россия) (154 км)
Погода в Вилюйске (Якутия, Россия) (158 км)
Погода в Бердигестяхе (Якутия, Россия) (217 км)
Погода в Тонгулахе (Якутия, Россия) (226 км)
Погода в Батамае (Якутия, Россия) (231 км)
Погода в Верхневилюйске (Якутия, Россия) (233 км)
Погода в Сеген-Кюеле (Якутия, Россия) (268 км)
Погода в Намцах (Якутия, Россия) (276 км)

Пояснения к столбцам:

Ветер - указаны скорость ветра в м/с - средняя за 10 мин, порывы в срок и между сроками (в фигурных скобках) и направление, откуда дует ветер: С - северный, СВ - северо-восточный, В - восточный, ЮВ - юго-восточный, Ю - южный, ЮЗ - юго-западный, З - западный, СЗ - северо-западный.
Видимость - горизонтальная дальность видимости в метрах или километрах. При видимости от 1 до 10 км при отсутствии осадков обычно наблюдается дымка, при ухудшении видимости до 1 км и менее - туман. В сухую погоду видимость может ухудшаться дымом, пылью или мглою.
Явления - указаны атмосферные явления, наблюдавшиеся в срок или в последний час перед сроком; фигурными скобками обозначены явления, наблюдавшиеся между сроками (за 1-3 часа до срока); квадратными скобками обозначены град или гололедные отложения с указанием их диаметра в мм.
Облачность - указаны через наклонную черту общая и нижняя облачность в баллах и высота нижней границы облаков в метрах; квадратными скобками обозначены формы облаков: Ci - перистые, Cs - перисто-слоистые, Cc - перисто-кучевые, Ac - высококучевые, As - высокослоистые, Sc - слоисто-кучевые, Ns - слоисто-дождевые, Cu - кучевые, Cb - кучево-дождевые. Подробнее классификацию облаков см. в Атласе облаков (PDF).
T - Температура воздуха - температура, измеренная на высоте 2 м над землей.
Td - Температура точки росы - температура, при понижении до которой содержащийся в воздухе водяной пар достигнет насыщения.
f - Относительная влажность воздуха - влажноcть воздуха, измеренная на высоте 2 м над землей.
Te - Эффективная температура - температура, которую ощущает одетый по сезону человек в тени. Характеристика душности погоды. При расчете учитывается влияние влажности воздуха и скорости ветра на теплоощущения человека.
Tes - Эффективная температура на солнце - температура, которую ощущает человек, с поправкой на солнечный нагрев. Характеристика знойности погоды. Зависит от высоты солнца над горизонтом, облачности и скорости ветра. Ночью, в пасмурную погоду, а также при ветре 12 м/с и более поправка равна нулю.
P - Атмосферное давление - приведенное к уровню моря атмосферное давление.
Po - Атмосферное давление - измеренное на уровне метеостанции атмосферное давление.
Tmin - Минимальная температура - минимум температуры воздуха на высоте 2 м над землей.
Tmax - Максимальная температура - максимум температуры воздуха на высоте 2 м над землей.
R - Количество осадков - Количество выпавших осадков за период времени, мм. При наведении курсора мыши на число - период времени, за который выпало указанное количество осадков.
R24 - Количество осадков - Количество выпавших осадков за 24 часа, мм.
S - Снежный покров - Высота снежного покрова, см. При наведении курсора мыши на число - состояние снежного покрова и степень покрытия местности в баллах.